Satellite-Ground Cal/Val Site Overpasses Predictions

Prediction of Satellite NPP Overpassing Cal/Val Site: Antarctic Dome C

Ground Cal/Val Site Location: Latitude: -75.10, Longitude: 123.35; Satellite-Ground Site NADIR distance within 100 km.

Table of predicted overpasses for the next 14.0 days since TLE Epoch: 7/25/2017
Interval Starting Time Ending Time Minimum Distance Time Minimum Distance (km)
1 07/25/2017 14:35:58 07/25/2017 14:36:12 07/25/2017 14:36:05 87.51
2 07/26/2017 07:37:30 07/26/2017 07:37:58 07/26/2017 07:37:44 32.40
3 07/27/2017 07:18:46 07/27/2017 07:19:04 07/27/2017 07:18:55 77.78
4 07/29/2017 15:01:02 07/29/2017 15:01:26 07/29/2017 15:01:14 56.64
5 07/30/2017 14:42:13 07/30/2017 14:42:38 07/30/2017 14:42:25 52.32
6 07/31/2017 07:43:54 07/31/2017 07:44:16 07/31/2017 07:44:05 67.98
7 08/01/2017 07:25:04 08/01/2017 07:25:30 08/01/2017 07:25:17 39.96
8 08/03/2017 15:07:31 08/03/2017 15:07:39 08/03/2017 15:07:35 94.67
9 08/04/2017 14:48:32 08/04/2017 14:49:01 08/04/2017 14:48:46 16.61


NCC Satellite Cal/Val Overpasses Prediction Service
